Location: Newark
(51.0500°N, 12.4500°E)
Time: 14:40:19
(UTC+00:00)

Tiros 1 - Pass Details

Date: 25 February 2020
Orbit: 630 x 664 km, 48.4° (Epoch: 08 April)

Event Time Altitude Azimuth Distance (km) Brightness Sun altitude
Rises 05:40:46 0° 279° (W) 2,921 - -4.5°
Exits shadow 05:42:08 - 274° (W) 2,427 9.4 -4.3°
Reaches altitude 10° 05:43:22 10° 267° (W) 2,009 9.0 -4.1°
Maximum altitude 05:47:12 26° 211° (SSW) 1,238 8.4 -3.5°
Drops below altitude 10° 05:51:01 10° 155° (SSE) 2,004 10.2 -2.9°
Sets 05:53:37 0° 143° (SE) 2,912 11.4 -2.5°
